Saint George Island, AK

3:28 PM HST on February 05, 2016 (GMT -1000)
Saint George

Weather History for PAPB - October, 2012

Change the Weather History Date:

Friday, October 12, 2012

  Actual Average Record
Temperature  
Mean Temperature 40 °F -  
Max Temperature 43 °F 41 °F 48 °F (2003)
Min Temperature 37 °F 34 °F 26 °F (2008)
Degree Days  
Heating Degree Days 26    
Moisture  
Dew Point 36 °F    
Average Humidity 85    
Maximum Humidity 100    
Minimum Humidity 65    
Precipitation  
Precipitation 0.00 in - - ()
Sea Level Pressure  
Sea Level Pressure 29.41 in    
Wind  
Wind Speed 30 mph (NE)    
Max Wind Speed 38 mph    
Max Gust Speed 48 mph    
Visibility 10 miles    
Events      
Averages and records for this station are not official NWS values.
T = Trace of Precipitation, MM = Missing Value Source: NWS Daily Summary

Daily Weather History Graph

Daily Weather History Graph

Search for Another Location

Airport or City:

Trip Planner

Search our weather history database for the weather conditions in past years. The results will help you decide how hot, cold, wet, or windy it might be!

Date:

Astronomy

Oct. 12, 2012 Rise Set
Actual Time 9:46 AM AKDT 8:22 PM AKDT
Civil Twilight 9:08 AM AKDT 9:00 PM AKDT
Nautical Twilight 8:24 AM AKDT 9:43 PM AKDT
Astronomical Twilight 7:40 AM AKDT 10:28 PM AKDT
Moon 6:16 AM AKDT (10/12) 7:00 PM AKDT (10/12)
Length of Visible Light 11h 52m
Length of Day
10h 36m
Waning Crescent, 10% of the Moon is Illuminated
Oct 12
Waning Crescent
Oct 15
New
Oct 21
First Quarter
Oct 29
Full
Nov 6
Last Quarter

Hourly Weather History & Observations

Time (AKDT) Temp. Windchill Dew Point Humidity Pressure Visibility Wind Dir Wind Speed Gust Speed Precip Events Conditions
12:53 AM 42.1 °F 31.1 °F 39.9 °F 92% 29.35 in 10.0 mi NE 31.1 mph 38.0 mph N/A   Mostly Cloudy
1:08 AM 41.0 °F 29.5 °F 39.2 °F 93% 29.37 in 10.0 mi NE 32.2 mph 38.0 mph N/A   Partly Cloudy
1:53 AM 41.0 °F 30.0 °F 39.0 °F 93% 29.34 in 10.0 mi NE 28.8 mph 38.0 mph N/A   Clear
2:53 AM 41.0 °F 30.2 °F 39.0 °F 93% 29.34 in 10.0 mi NE 27.6 mph 36.8 mph N/A   Clear
3:53 AM 42.1 °F 31.9 °F 39.0 °F 89% 29.35 in 10.0 mi NE 26.5 mph 33.4 mph N/A   Clear
4:53 AM 41.0 °F 29.8 °F 39.0 °F 93% 29.35 in 10.0 mi NE 29.9 mph 36.8 mph N/A   Clear
5:09 AM 41.0 °F 30.0 °F 39.2 °F 93% 29.39 in 10.0 mi NE 28.8 mph 36.8 mph N/A   Scattered Clouds
5:26 AM 41.0 °F 30.0 °F 39.2 °F 93% 29.39 in 10.0 mi NE 28.8 mph 35.7 mph N/A   Mostly Cloudy
5:53 AM 41.0 °F 30.7 °F 39.9 °F 96% 29.36 in 10.0 mi NE 25.3 mph - N/A   Overcast
6:53 AM 39.9 °F 29.0 °F 39.0 °F 97% 29.36 in 10.0 mi NNE 26.5 mph - N/A   Mostly Cloudy
7:01 AM 39.2 °F 28.3 °F 39.2 °F 100% 29.40 in 10.0 mi NNE 25.3 mph - N/A   Scattered Clouds
7:36 AM 39.2 °F 29.0 °F 39.2 °F 100% 29.41 in 10.0 mi NNE 21.9 mph 29.9 mph N/A   Mostly Cloudy
7:53 AM 39.9 °F 29.7 °F 39.0 °F 97% 29.37 in 10.0 mi NNE 23.0 mph - N/A   Overcast
8:44 AM 39.2 °F 28.3 °F 37.4 °F 93% 29.41 in 10.0 mi NE 25.3 mph 32.2 mph N/A   Overcast
8:53 AM 39.9 °F 28.6 °F 37.0 °F 89% 29.38 in 10.0 mi NE 28.8 mph 35.7 mph N/A   Overcast
9:53 AM 39.0 °F 27.0 °F 36.0 °F 89% 29.38 in 10.0 mi NE 31.1 mph 39.1 mph N/A   Overcast
10:53 AM 39.0 °F 27.8 °F 35.1 °F 86% 29.40 in 10.0 mi NE 26.5 mph 39.1 mph N/A   Mostly Cloudy
11:53 AM 39.9 °F 28.0 °F 36.0 °F 86% 29.40 in 10.0 mi NE 32.2 mph 40.3 mph N/A   Mostly Cloudy
12:13 PM 39.2 °F 27.0 °F 35.6 °F 87% 29.44 in 10.0 mi NE 32.2 mph 40.3 mph N/A   Scattered Clouds
1:53 PM 42.1 °F 30.8 °F 33.1 °F 70% 29.42 in 10.0 mi NE 33.4 mph 42.6 mph N/A   Clear
2:53 PM 42.1 °F 30.6 °F 33.1 °F 70% 29.42 in 10.0 mi NE 34.5 mph 42.6 mph N/A   Clear
3:53 PM 42.1 °F 31.0 °F 34.0 °F 73% 29.43 in 10.0 mi NNE 32.2 mph 41.4 mph N/A   Clear
4:53 PM 42.1 °F 30.4 °F 33.1 °F 70% 29.42 in 10.0 mi NNE 35.7 mph 44.9 mph N/A   Clear
5:53 PM 41.0 °F 29.0 °F 33.1 °F 73% 29.43 in 10.0 mi NNE 35.7 mph 44.9 mph N/A   Clear
6:53 PM 39.9 °F 27.3 °F 33.1 °F 77% 29.45 in 10.0 mi NNE 36.8 mph 44.9 mph N/A   Scattered Clouds
7:02 PM 39.2 °F 26.1 °F 32.0 °F 75% 29.48 in 10.0 mi NNE 38.0 mph 47.2 mph N/A   Mostly Cloudy
7:53 PM 39.0 °F 25.9 °F 32.0 °F 76% 29.46 in 10.0 mi NNE 38.0 mph 48.3 mph N/A   Overcast
9:53 PM 37.0 °F 24.5 °F 28.9 °F 73% 29.52 in 10.0 mi NNE 29.9 mph 44.9 mph N/A   Overcast
10:51 PM 37.4 °F 23.6 °F 28.4 °F 70% 29.54 in 10.0 mi NNE 38.0 mph 46.0 mph N/A   Mostly Cloudy
10:53 PM 37.0 °F 23.7 °F 28.9 °F 73% 29.52 in 10.0 mi NNE 34.5 mph 46.0 mph N/A   Overcast
11:53 PM 37.9 °F 25.3 °F 27.0 °F 65% 29.53 in 10.0 mi NNE 32.2 mph 42.6 mph N/A   Overcast